Theta_e
302 302 302 302 303 303 303 303 303 302 302 305 304 311 309 303 298 310 316 316 314 305 298 301 298 299 300 302 302 302 300 299 300 298 300 297 299 299 298 297 297 298 297 297 296 297 295 295 293 295 296 296 298 299 300 300 298 298 296 296 300 298 291 288 290 293 295 297 298 300 300 299 297 298 299 297 294 295 293 292 294 290 290 289 289 285 289
302 302 302 302 303 303 303 303 303 302 302 303 306 307 306 303 303 306 311 316 311 302 292 292 294 299 300 301 300 301 300 299 298 297 299 298 299 298 298 299 299 298 300 299 295 298 290 295 295 294 296 295 300 300 299 298 296 296 298 296 302 291 294 290 286 286 289 292 295 295 298 297 295 294 297 298 297 297 297 297 297 288 291 291 288 282 288
302 302 302 302 302 303 303 303 303 303 303 304 306 303 305 302 305 304 308 310 309 297 300 297 295 297 298 298 297 298 298 299 300 300 298 300 299 299 298 300 300 298 299 297 298 298 295 294 297 296 296 296 300 299 299 298 297 301 302 302 303 294 293 291 284 282 280 280 282 284 287 291 295 297 296 296 295 296 294 288 291 286 291 292 287 287 294
302 302 302 302 302 302 302 302 302 302 302 303 306 309 305 302 292 302 301 304 303 302 305 304 299 296 298 294 298 298 296 298 299 299 298 299 300 299 299 300 300 297 297 295 295 295 298 294 294 295 294 296 297 299 299 298 298 302 300 301 300 293 296 294 290 288 286 289 291 296 294 294 290 293 294 295 296 297 297 294 289 286 290 289 292 293 293
302 302 302 302 302 302 302 302 301 301 302 302 305 309 307 302 296 297 294 303 301 300 302 299 299 295 300 292 297 296 296 297 297 300 296 299 298 298 298 297 296 295 295 295 294 296 295 296 295 294 294 296 298 298 298 298 300 302 299 300 297 295 289 293 294 293 292 293 292 294 294 291 292 292 293 294 294 295 294 289 288 294 289 285 292 295 291
301 302 302 302 302 302 302 302 301 301 301 302 309 304 303 295 300 302 303 297 292 294 295 299 299 299 300 297 299 296 296 296 293 297 298 299 300 295 297 296 296 296 295 296 291 294 294 295 291 295 295 295 297 295 297 297 300 299 298 302 297 293 288 293 294 292 293 294 294 295 294 294 293 293 293 293 294 294 291 291 294 294 288 286 292 294 290
301 301 302 302 302 302 302 302 301 301 300 303 306 301 302 302 302 301 303 296 299 298 298 298 298 298 298 296 297 295 295 295 297 296 297 296 296 297 289 294 295 296 297 296 293 294 289 288 296 294 295 295 295 294 295 297 299 298 297 298 299 295 290 293 293 291 292 293 293 294 293 293 293 293 293 294 294 293 294 293 294 294 292 293 293 293 292
301 301 301 302 302 302 302 302 301 301 299 307 303 300 298 295 296 296 301 301 298 299 299 299 296 295 296 291 295 295 295 294 295 296 295 292 295 297 294 294 296 296 295 295 292 296 297 296 290 296 295 294 296 294 295 294 297 297 296 296 298 293 288 293 293 289 289 292 292 293 292 292 291 292 293 293 293 293 294 294 294 295 293 294 293 290 290
300 301 301 301 301 302 302 302 301 300 300 304 300 298 300 301 304 301 298 296 296 296 298 296 296 294 296 293 295 294 294 294 296 294 296 296 295 296 295 296 296 296 295 296 295 297 298 298 297 297 297 292 297 294 295 297 294 295 295 296 296 295 289 294 292 286 286 290 291 291 292 292 291 291 292 292 292 289 292 290 293 292 290 292 291 289 289
300 300 301 301 301 301 301 302 302 300 301 303 300 296 302 303 305 305 301 292 294 294 298 296 293 289 294 294 295 293 294 295 295 291 295 296 296 296 296 298 296 295 295 294 295 297 298 298 298 299 299 300 298 298 297 297 295 295 294 296 293 293 290 288 288 284 285 290 291 290 290 289 286 286 289 292 293 294 294 294 295 295 294 289 287 288 295
300 301 300 301 301 301 301 301 301 301 302 300 299 298 299 297 298 300 301 293 292 294 294 294 293 293 296 295 293 295 295 295 295 291 290 295 296 297 298 297 295 293 294 295 298 299 299 299 300 300 298 298 297 297 297 297 296 295 294 294 293 293 291 288 291 283 284 288 290 290 285 278 281 292 295 295 292 293 291 291 294 296 296 292 295 295 298
300 300 300 300 301 301 301 301 301 301 300 303 304 299 300 301 301 301 295 290 291 296 294 290 292 295 294 294 294 294 293 294 295 296 293 294 296 298 297 297 296 289 296 301 301 300 300 299 298 299 297 297 297 297 296 295 296 297 296 293 292 291 290 288 290 284 283 287 287 282 276 279 292 296 296 296 296 295 293 293 294 295 296 296 295 297 297
300 300 300 300 300 301 301 301 301 300 300 302 303 297 301 302 300 298 295 293 290 290 291 292 294 294 294 295 294 294 294 295 296 296 295 295 294 296 296 295 294 294 299 299 299 298 294 293 294 293 293 295 295 295 294 294 294 296 295 295 292 288 287 288 286 287 286 284 283 274 277 290 294 294 296 297 296 293 293 290 293 294 295 296 294 295 297
300 300 300 300 300 300 301 301 301 301 300 301 302 300 300 300 298 297 295 292 290 293 294 294 293 293 294 293 293 293 294 294 295 295 294 295 293 294 295 295 296 299 299 300 297 295 291 291 287 288 289 290 290 289 292 294 294 294 293 294 294 292 291 288 284 288 280 282 282 281 288 288 290 289 291 293 289 291 290 284 288 295 296 296 295 295 296
300 300 300 300 300 300 301 301 301 301 301 301 304 302 300 300 300 298 300 296 289 292 292 288 291 293 293 293 293 292 292 292 291 291 293 295 294 294 294 295 297 297 299 296 292 294 289 288 284 283 285 284 280 282 290 288 293 294 294 294 294 294 287 288 284 283 286 281 280 281 280 277 283 292 295 297 296 296 295 291 287 295 296 296 295 295 295
300 300 300 300 300 300 300 301 301 301 301 301 304 302 302 302 303 302 300 296 292 287 290 294 294 293 292 292 292 291 290 289 291 291 292 292 292 293 295 296 298 298 296 293 292 289 288 284 282 282 280 282 286 284 283 287 286 290 293 293 293 293 292 289 285 283 283 281 278 278 276 280 287 289 293 295 295 297 295 288 283 292 294 294 295 294 295
300 300 300 300 300 300 300 301 301 301 301 301 301 302 300 304 302 299 298 298 294 287 294 294 296 296 294 292 294 293 293 289 290 287 287 288 289 291 293 296 298 297 293 292 291 289 286 284 286 285 286 287 283 282 287 285 284 284 288 289 289 289 288 287 284 282 282 281 279 277 281 280 288 291 293 294 295 295 291 277 280 291 295 294 294 293 294
300 300 300 300 299 300 300 301 301 301 301 301 302 301 300 305 304 303 300 295 291 291 293 295 293 292 290 290 291 294 294 293 293 293 289 290 290 290 290 292 292 295 295 288 289 286 285 284 282 282 281 288 288 287 279 284 281 282 283 284 283 284 284 284 280 282 281 281 280 282 283 288 291 291 293 294 296 292 280 276 283 292 294 294 295 293 294
300 300 300 299 299 299 300 300 301 301 301 301 303 304 302 304 304 304 301 296 294 289 293 296 297 294 295 296 293 293 292 292 292 288 288 287 289 291 291 291 293 288 293 288 289 285 283 284 287 285 282 284 286 281 286 282 282 286 285 282 282 283 283 283 283 281 280 281 279 279 282 287 291 293 294 295 289 279 279 288 293 293 292 294 294 293 294
300 300 300 299 299 299 300 300 301 301 301 301 301 301 303 304 305 304 298 295 295 291 293 293 295 293 294 294 292 292 293 293 292 290 287 284 292 292 291 287 291 291 290 291 284 287 284 282 284 287 283 284 285 288 284 284 287 284 284 286 282 283 280 279 280 282 282 281 278 277 274 284 291 292 291 292 283 284 289 291 293 294 293 293 293 294 294
301 301 300 300 300 299 300 300 301 301 301 301 301 302 299 304 305 304 304 300 295 290 291 295 296 295 295 295 296 295 294 290 291 289 290 290 293 291 282 282 287 288 285 287 282 283 284 283 285 283 287 286 287 285 281 282 283 289 287 285 284 287 280 281 282 285 278 278 276 276 283 286 293 291 283 287 290 292 293 292 290 293 293 293 293 293 294
301 301 301 300 300 300 300 300 300 301 301 301 301 303 297 301 303 304 305 304 294 290 292 295 296 297 298 298 299 299 296 295 296 297 292 290 294 291 290 291 290 290 291 292 287 285 287 287 288 284 282 284 288 282 285 281 278 284 288 287 278 287 284 285 280 285 281 280 283 287 290 291 292 292 291 292 293 293 293 292 291 291 292 294 292 292 294
301 301 301 300 300 300 300 300 300 300 301 301 302 302 297 299 299 305 305 296 298 298 299 298 297 298 299 299 300 300 300 300 300 299 298 292 289 292 289 289 289 292 293 294 287 287 288 287 284 288 285 286 283 282 284 283 281 284 281 288 286 290 289 290 287 284 289 290 290 291 290 290 291 293 293 292 292 293 293 292 291 292 292 293 292 293 293
301 301 301 300 300 300 300 300 300 300 301 301 301 302 299 300 301 303 299 298 294 291 292 296 293 289 291 293 296 299 299 299 299 300 302 299 288 288 292 293 294 294 292 293 290 288 287 287 287 287 281 286 287 282 279 279 281 285 283 283 286 288 289 286 282 286 283 278 288 288 288 290 290 290 292 293 293 292 293 292 291 291 292 293 293 293 293
302 302 301 300 300 300 300 300 300 300 300 301 301 304 303 301 302 301 296 288 289 290 286 288 289 293 295 297 299 298 298 299 300 300 299 299 296 290 288 294 296 292 290 293 295 292 289 284 286 285 280 287 287 280 286 281 281 287 280 283 284 283 289 284 285 284 281 281 287 288 290 290 291 290 289 290 291 292 293 292 292 292 293 293 293 293 293
302 302 301 300 300 300 300 300 299 300 300 301 301 302 299 299 302 303 300 298 296 290 286 286 289 296 297 296 293 295 298 299 298 299 299 298 297 298 296 296 295 297 295 295 294 288 286 285 286 285 282 282 289 282 282 285 283 286 283 283 287 286 288 280 284 282 284 286 287 287 289 289 289 291 292 292 291 290 291 292 292 292 292 292 293 293 293
302 302 301 300 300 300 300 299 299 299 300 301 302 303 300 301 302 299 296 295 291 287 289 286 290 293 295 293 295 297 297 297 298 298 297 297 297 298 297 295 294 294 293 292 293 289 288 286 285 283 285 284 288 287 286 284 285 283 282 286 289 286 282 286 284 280 279 280 283 286 280 281 286 289 290 291 293 293 293 293 292 292 291 292 292 292 293
302 302 301 300 301 301 300 299 299 299 300 301 302 302 303 301 301 301 302 299 294 287 287 287 288 291 296 292 295 297 296 297 297 296 296 295 296 296 295 294 294 292 291 289 286 286 286 282 283 286 286 288 286 284 288 288 287 284 283 284 287 284 285 284 281 280 279 285 287 288 288 287 289 290 292 293 294 294 293 292 292 293 295 295 294 293 292
302 302 301 300 301 302 300 299 299 299 300 300 303 301 301 302 303 302 301 302 300 294 290 289 291 291 285 289 296 295 296 297 296 295 294 294 294 295 294 294 293 293 293 289 287 286 285 285 287 285 285 290 284 282 284 280 280 279 283 287 287 288 288 287 287 287 288 289 289 291 289 287 290 293 293 293 294 294 293 294 295 294 295 295 294 294 293
302 302 301 301 301 302 299 298 299 300 300 302 300 298 293 296 302 302 302 302 301 297 289 286 284 286 294 293 293 293 294 295 295 295 294 293 293 293 293 293 293 294 292 288 288 284 287 286 287 290 291 292 284 284 280 281 280 282 287 287 288 289 291 291 291 288 286 290 291 291 291 291 293 293 293 294 295 294 293 293 294 293 294 294 293 293 294
302 301 301 300 302 301 300 300 296 299 301 301 298 290 289 286 295 303 301 303 303 298 290 290 286 289 289 293 294 291 292 293 293 293 293 293 294 294 294 294 293 293 287 288 286 287 287 284 285 287 290 290 287 283 282 281 280 282 286 287 289 289 290 290 292 292 291 290 291 292 292 292 294 293 293 294 294 294 293 293 294 294 294 294 294 294 294
302 301 300 300 301 301 299 299 301 300 301 299 294 294 294 295 299 301 301 303 302 297 289 286 285 286 285 288 293 294 292 294 294 294 294 293 292 293 293 292 288 293 289 287 287 286 285 287 285 286 286 290 287 283 283 281 280 281 287 288 290 290 291 291 291 291 291 291 291 289 289 290 292 290 288 291 293 293 294 294 295 295 294 295 296 296 295
302 301 300 299 300 301 301 301 300 300 301 301 302 301 300 300 300 301 302 302 300 291 294 288 282 284 284 286 292 293 292 293 292 290 289 294 290 291 289 293 293 292 295 287 284 283 287 286 287 284 287 291 284 283 283 281 282 287 288 289 290 290 290 291 291 291 291 292 292 287 285 286 289 291 292 293 294 292 292 293 294 295 293 292 292 292 293
302 301 299 299 300 300 299 299 299 297 299 300 297 297 302 300 302 301 303 303 298 295 293 286 283 283 284 290 285 290 293 288 288 290 286 293 292 290 287 289 291 285 289 285 287 286 288 287 284 284 288 285 286 283 279 282 287 287 289 290 290 289 290 291 291 290 290 291 293 292 292 292 292 293 293 293 291 292 292 293 292 291 291 291 291 291 292
302 301 299 298 299 299 298 299 300 299 295 296 297 302 302 299 299 301 302 299 290 287 287 286 287 283 283 284 283 287 293 290 286 289 286 289 294 289 289 285 287 283 286 291 285 285 284 285 287 283 281 287 283 279 281 284 286 288 289 288 290 290 290 289 289 289 290 292 293 292 292 293 291 289 289 290 290 290 290 290 290 290 289 289 290 290 290
301 301 299 298 299 301 302 299 298 297 296 295 296 300 300 300 301 304 304 303 298 288 287 285 286 283 283 280 280 286 293 289 291 291 290 288 288 292 290 286 281 286 291 286 282 287 284 289 285 281 285 281 279 282 283 287 287 288 289 288 289 289 289 288 289 289 290 292 291 291 292 292 291 290 289 289 289 289 289 289 289 289 288 288 288 288 288
301 302 301 298 299 300 298 294 299 299 297 299 299 299 299 300 304 303 301 298 300 301 290 285 284 285 285 284 287 288 290 283 288 287 288 286 284 287 287 284 282 285 284 283 284 282 286 291 284 281 281 279 281 287 288 288 289 288 288 290 290 290 289 290 290 291 289 290 290 290 291 290 290 289 289 288 288 288 288 287 288 287 286 287 287 287 287
302 302 302 300 297 291 291 293 298 300 298 298 299 298 298 297 292 292 291 289 294 292 290 289 285 286 289 286 282 290 289 285 289 283 284 287 284 284 287 284 284 282 278 281 284 290 286 284 282 281 281 286 287 288 289 289 290 290 291 290 289 290 290 290 291 290 287 286 287 288 288 288 288 288 287 286 287 287 286 288 288 288 288 287 287 287 287
301 302 299 298 295 290 290 295 302 298 298 300 299 293 289 291 288 286 287 288 288 286 290 287 285 287 286 285 287 294 289 285 284 285 281 288 283 280 285 278 284 283 280 280 282 290 280 282 282 282 280 284 285 287 290 290 291 291 292 290 290 290 291 291 291 289 287 286 287 288 287 286 286 286 287 287 288 288 288 288 287 288 288 288 287 287 286
300 296 292 293 292 293 299 301 299 299 299 292 293 290 285 289 285 282 289 284 285 287 287 283 289 288 289 286 284 285 293 288 282 282 283 284 290 281 284 282 284 280 275 277 281 287 280 276 280 280 279 283 283 288 289 289 289 291 291 290 291 291 291 290 291 292 290 290 290 289 290 289 289 288 287 287 287 286 286 287 288 288 288 287 287 286 285
296 296 294 291 296 298 298 300 300 297 292 288 288 287 285 282 288 287 284 283 283 284 290 288 288 287 290 289 288 284 292 292 291 290 286 282 289 286 282 278 285 278 276 276 283 283 281 279 279 278 280 285 287 289 289 288 289 289 291 292 291 290 290 291 291 291 290 290 290 290 290 290 289 289 289 288 288 286 286 287 288 288 288 287 286 286 286
296 295 297 298 299 299 299 297 293 290 289 289 284 280 284 284 286 285 285 280 282 285 287 287 284 285 285 288 288 289 288 293 290 287 284 280 285 282 280 281 283 277 273 282 285 282 280 275 276 278 283 286 288 289 289 287 289 289 289 290 292 291 291 291 290 291 291 290 290 290 290 290 290 289 290 289 289 288 287 287 287 288 288 288 288 287 287
298 296 298 296 295 292 293 287 290 288 281 279 279 277 282 279 282 281 283 287 289 286 287 293 291 292 293 293 289 292 288 293 286 285 283 280 286 285 280 279 278 273 278 285 282 278 276 275 275 280 285 285 288 289 287 288 289 290 290 291 291 291 291 290 290 290 290 290 290 290 290 290 290 290 290 290 289 287 287 288 288 288 288 288 287 287 286
299 297 293 291 288 289 289 277 289 284 281 282 279 275 278 277 282 284 281 283 286 285 288 284 286 285 282 289 286 286 288 289 288 286 284 286 283 279 278 275 276 283 287 281 279 276 277 279 281 283 285 287 290 288 286 288 289 290 290 291 292 292 292 291 291 290 289 291 291 291 291 290 290 291 291 290 290 289 288 288 288 288 288 288 287 287 287
291 289 289 287 283 287 283 276 288 282 276 280 282 281 282 279 282 284 283 287 288 286 289 289 288 287 284 288 288 287 287 283 289 281 279 282 279 280 277 276 281 282 278 275 277 278 278 277 283 285 285 285 287 286 288 289 289 287 288 291 291 292 291 290 290 289 290 290 290 290 289 290 290 290 289 288 289 290 289 287 288 287 287 287 287 287 287
288 286 285 281 277 283 282 279 281 278 283 285 283 286 286 287 287 286 290 291 288 288 287 287 288 287 284 288 283 282 285 285 282 282 283 282 277 275 281 285 283 277 276 276 274 274 276 280 283 284 286 286 285 285 286 289 290 291 291 290 291 291 291 290 290 290 289 289 290 290 290 290 290 289 288 289 289 288 289 289 289 288 287 286 286 287 288
288 289 287 285 279 283 286 280 281 285 287 288 289 289 288 289 290 289 290 290 288 290 289 290 288 288 284 285 285 285 285 285 280 283 284 278 276 280 284 278 273 275 272 272 273 275 278 282 284 285 286 285 285 286 288 288 289 290 291 291 291 292 292 291 291 289 289 290 291 291 290 290 290 290 289 288 288 289 288 289 289 288 287 286 286 287 288
283 288 287 278 277 283 281 284 289 290 291 290 289 290 290 291 289 287 290 290 290 290 288 288 284 286 284 288 286 282 283 284 280 281 283 280 282 277 276 275 274 277 277 275 276 280 282 284 285 285 286 286 286 286 287 288 289 291 292 291 290 292 292 291 291 291 290 291 291 291 290 291 290 290 289 288 288 289 290 289 289 289 288 287 287 286 286
288 286 283 282 285 285 285 288 289 286 289 290 290 289 289 288 287 289 290 291 289 289 289 287 285 285 281 284 282 281 279 283 277 278 282 279 274 272 272 271 273 272 278 281 281 282 283 285 286 285 286 286 286 286 288 289 290 291 290 289 290 293 293 292 292 291 291 291 292 291 291 291 290 290 289 289 288 288 289 290 290 289 288 287 287 286 286
285 284 286 284 284 286 289 289 287 285 287 288 288 287 288 287 286 289 292 289 289 288 287 287 287 283 282 282 278 280 279 282 280 280 278 275 276 277 275 272 275 275 278 283 283 284 286 286 287 286 286 286 287 288 288 289 289 290 291 292 292 291 293 293 292 293 292 292 292 292 291 291 290 290 289 288 289 289 289 288 289 288 288 288 287 287 286
288 286 286 289 285 284 287 282 283 283 285 286 287 287 287 286 287 288 292 289 289 287 285 282 283 281 279 279 277 274 277 283 279 277 277 276 279 277 275 274 277 281 283 285 286 286 287 288 287 287 286 286 288 289 289 290 291 292 292 293 293 292 292 293 293 294 294 294 294 289 291 291 290 289 289 290 290 289 289 288 287 288 288 288 287 287 286
284 281 283 287 289 289 288 288 288 287 287 288 288 289 288 286 289 289 292 289 287 283 281 284 282 279 277 275 277 281 283 280 277 278 276 279 282 278 278 279 281 283 285 285 285 287 287 287 287 286 286 287 287 289 290 290 292 293 293 293 293 292 291 292 293 293 293 293 292 292 291 291 290 290 290 289 289 289 287 286 287 288 287 288 287 287 287
Wind_Speed
28 28 28 27 28 28 28 28 27 26 27 12 10 9 6 7 6 10 5 5 7 8 10 9 8 9 9 6 7 3 6 7 3 4 7 8 8 6 4 8 8 9 8 6 8 5 7 8 7 7 6 1 11 9 4 3 4 4 7 9 4 3 3 6 11 12 15 16 18 12 8 8 12 13 13 12 12 11 11 11 10 10 9 10 7 8 4
29 28 27 28 28 29 29 29 28 25 21 11 11 8 7 6 6 4 7 6 6 9 8 8 9 8 12 7 9 2 6 5 6 8 5 6 5 7 7 5 5 7 2 7 7 5 5 5 8 5 5 2 8 8 3 2 5 7 4 4 7 2 6 10 9 8 7 10 11 12 10 8 9 10 10 13 13 15 13 12 10 10 13 13 10 11 7
27 27 28 28 28 29 29 30 30 26 21 15 7 6 6 7 5 7 4 6 7 10 8 10 8 9 11 9 11 7 8 5 6 6 3 1 6 3 5 5 2 6 5 8 8 8 6 6 5 7 4 4 5 8 2 2 7 3 8 6 3 5 6 6 7 7 8 7 7 6 5 7 5 7 12 16 17 11 7 9 9 11 12 14 12 11 9
26 27 27 27 28 29 29 30 30 29 23 16 9 7 7 4 4 5 6 5 7 9 6 8 7 7 6 4 9 10 9 6 6 7 6 4 4 5 7 1 6 9 4 7 8 9 8 8 5 5 8 6 5 6 4 4 3 9 5 4 5 6 7 9 10 10 11 10 11 7 7 8 10 9 13 11 8 10 10 9 10 12 11 12 13 13 9
26 27 28 27 28 29 29 30 30 30 27 21 9 7 6 6 4 3 2 0 7 6 4 8 8 8 7 6 7 10 10 5 4 5 7 6 7 4 6 8 5 7 8 8 9 9 11 10 11 9 7 7 5 6 2 5 5 5 2 5 5 6 7 11 13 15 16 17 18 18 17 15 14 13 12 15 15 13 13 9 12 11 11 14 12 12 13
27 27 27 28 28 29 29 30 32 30 31 28 9 6 5 3 4 3 4 4 0 3 4 4 4 4 2 6 2 7 9 7 6 5 7 2 5 6 4 9 11 8 9 7 6 8 10 8 5 8 9 8 6 5 9 9 12 7 7 6 6 8 8 11 13 15 16 16 16 16 17 17 17 18 18 17 17 18 17 16 17 16 12 15 15 15 12
27 28 27 28 28 28 29 30 32 32 31 23 7 7 4 6 4 3 6 5 2 6 7 6 7 2 3 2 3 9 8 9 6 4 2 6 3 6 3 5 7 7 6 6 7 8 8 7 9 8 7 8 7 7 6 8 7 8 8 6 3 4 7 12 12 15 16 17 18 17 18 17 18 19 20 19 19 20 20 21 20 20 19 19 18 18 16
26 27 26 26 28 28 28 30 30 32 35 20 10 11 8 7 7 5 8 6 2 4 5 4 5 6 2 3 1 5 5 7 3 4 5 3 2 1 7 7 7 5 6 6 7 6 5 5 4 1 4 5 5 8 9 5 5 6 8 7 4 3 5 5 9 11 14 14 16 17 17 17 19 20 21 20 19 19 19 19 20 21 20 19 19 13 13
26 26 27 27 28 27 28 28 29 31 31 9 10 8 9 6 4 5 6 5 5 5 2 5 4 6 3 5 3 5 2 4 4 1 5 2 4 4 5 6 3 4 7 5 1 6 5 3 2 1 4 6 4 6 3 7 7 9 8 6 5 4 7 10 11 11 12 13 15 18 18 19 22 22 21 21 20 17 17 15 15 15 16 19 14 13 13
24 25 27 27 27 27 26 27 28 29 27 9 9 9 9 8 4 5 6 4 3 9 2 5 5 1 7 6 5 4 2 4 1 0 4 1 3 4 5 3 7 5 8 2 4 5 5 5 4 5 5 5 6 6 6 5 6 6 9 7 8 7 8 9 8 11 12 13 15 16 16 16 17 14 16 19 20 20 20 19 18 17 16 14 14 14 13
22 22 25 25 25 25 25 25 26 28 18 11 10 9 10 9 9 8 6 6 1 4 5 3 4 6 5 4 5 0 3 3 2 5 2 1 3 6 3 5 4 3 7 6 5 3 4 5 5 5 6 7 8 7 8 9 9 9 7 7 8 10 10 10 9 11 12 14 14 13 10 14 12 3 7 8 13 14 17 16 16 16 11 9 11 13 13
22 24 24 24 23 24 25 24 25 24 20 11 9 7 8 9 8 7 5 6 2 4 2 6 6 6 4 2 4 4 3 3 4 6 7 4 4 5 7 4 4 2 6 5 4 4 3 5 6 7 8 9 10 11 11 12 12 11 10 10 9 10 10 10 10 10 12 11 12 12 16 14 9 4 4 4 8 6 10 11 12 12 10 11 13 13 13
23 22 22 24 24 23 24 23 23 23 23 14 9 8 9 11 8 7 5 6 3 7 3 6 2 3 4 5 3 0 3 4 2 3 3 5 2 2 5 5 5 6 6 7 6 4 8 9 9 11 12 12 13 15 17 16 15 14 12 11 10 8 8 8 9 10 10 11 10 12 12 8 7 6 5 6 5 8 9 12 13 10 7 10 11 11 10
21 21 21 22 23 23 24 23 22 22 23 19 9 8 9 11 9 8 5 6 3 5 6 3 3 6 5 3 5 4 2 4 2 4 3 4 6 3 4 6 6 5 5 6 6 5 6 7 7 8 10 10 10 12 13 15 15 14 14 12 10 11 10 9 10 8 11 9 11 14 12 14 10 8 2 5 4 7 5 9 8 9 4 7 9 9 8
20 20 20 21 22 22 23 23 21 21 21 23 10 6 9 10 8 7 7 5 4 5 7 6 7 6 5 4 4 6 3 1 3 3 4 1 3 3 4 5 4 5 4 5 5 5 4 4 6 6 7 8 9 8 7 9 7 9 8 8 9 9 9 6 10 7 8 10 11 10 10 11 5 7 5 5 3 5 4 4 9 3 5 7 7 8 8
20 20 19 20 20 21 22 21 20 21 19 22 10 7 8 10 9 7 7 5 6 2 7 7 8 6 6 2 4 4 3 3 3 3 2 1 2 1 2 3 3 4 5 4 5 5 4 6 7 7 7 7 8 7 6 5 6 6 6 8 10 10 10 9 9 9 8 9 10 10 10 5 7 2 4 5 7 8 9 4 10 5 6 10 8 7 9
20 19 19 21 20 20 21 21 21 20 19 20 11 6 8 11 9 8 8 7 3 5 6 8 7 8 7 2 3 1 5 2 4 4 1 1 2 3 3 4 1 3 3 4 5 6 6 7 7 8 7 8 8 7 6 6 6 6 7 7 10 10 7 7 9 11 10 10 10 11 6 4 3 6 4 6 5 6 5 6 4 8 6 7 9 8 8
19 19 19 19 19 20 20 20 20 20 19 21 13 6 8 9 9 9 6 5 3 4 6 8 10 7 7 6 5 4 4 4 4 2 4 1 3 5 6 4 4 6 3 4 4 5 6 5 7 6 7 1 4 2 6 1 3 6 7 7 5 6 6 6 10 9 10 11 10 8 7 6 6 4 5 6 4 5 7 10 4 6 7 6 8 9 10
19 19 19 19 19 19 19 19 19 19 19 20 15 5 7 9 10 9 7 4 4 4 6 6 6 6 7 4 3 2 2 4 3 4 2 1 5 6 7 3 6 1 4 3 3 4 4 5 5 6 6 2 2 5 6 6 6 5 6 5 6 7 6 6 6 9 9 9 11 10 5 3 8 6 8 7 5 7 8 7 7 8 10 10 10 11 10
19 19 19 19 19 18 18 18 19 19 19 20 15 7 6 8 7 8 8 6 3 5 5 6 8 8 6 9 7 6 5 1 6 6 3 3 4 4 5 3 4 4 2 2 3 2 3 5 3 2 5 6 1 3 4 6 6 7 5 6 6 6 4 6 9 7 8 9 11 9 11 4 8 10 7 3 3 4 6 9 11 10 12 12 12 11 11
17 18 18 18 18 17 16 17 18 18 19 20 15 9 6 8 7 7 5 5 8 2 6 4 5 7 9 8 8 7 6 6 6 6 7 5 3 6 2 1 5 2 2 2 2 2 2 4 2 2 4 5 2 2 4 3 3 5 6 7 7 2 6 7 7 5 8 9 8 5 3 3 6 7 5 5 8 9 10 10 12 12 12 12 11 11 12
17 18 18 19 18 18 16 16 16 16 18 18 21 8 6 7 6 5 6 6 5 5 6 5 3 5 4 5 4 4 5 6 5 6 5 6 3 5 4 3 4 5 4 5 3 2 4 4 4 4 5 4 2 6 6 5 5 4 5 3 6 3 9 5 8 3 3 6 8 9 9 11 10 11 10 11 12 11 11 12 13 13 13 13 13 14 13
18 19 19 19 19 18 16 14 15 15 16 17 15 6 7 8 8 7 7 1 6 4 2 4 2 4 5 5 4 4 4 3 4 4 6 5 2 3 4 4 3 4 4 4 6 5 4 4 2 4 5 4 4 5 5 5 6 5 5 4 6 3 5 7 7 8 10 13 14 14 14 14 13 11 10 12 13 14 14 15 14 13 14 12 13 14 15
19 19 19 18 18 17 15 14 13 13 15 15 12 7 7 7 8 8 3 1 4 1 4 1 3 3 6 6 6 2 2 1 5 5 3 4 3 2 1 4 7 1 3 5 4 6 3 3 4 4 5 3 5 4 4 5 5 4 4 5 6 2 7 4 5 8 9 9 8 10 11 11 13 14 14 14 13 14 13 14 12 12 12 13 14 15 16
20 20 20 19 18 15 14 12 11 11 13 15 13 7 5 6 9 8 6 3 2 3 1 3 5 5 3 1 2 4 5 4 3 3 3 1 3 4 3 4 5 5 3 3 3 4 1 3 2 2 4 3 3 3 1 3 4 1 4 5 6 1 7 6 9 11 10 11 11 13 14 15 14 12 12 13 13 13 13 13 13 14 15 16 17 17 18
20 20 20 19 18 14 13 11 10 9 10 14 15 7 7 8 8 8 7 4 5 3 3 2 4 3 2 3 5 3 3 4 5 3 3 4 4 3 5 4 4 1 4 3 3 3 2 3 3 3 4 2 1 5 5 2 5 5 7 7 7 9 9 8 9 10 11 13 14 13 13 13 12 12 12 12 13 14 16 16 16 16 18 19 19 18 19
20 20 20 19 16 14 11 9 8 7 10 12 9 4 6 5 6 8 8 6 7 3 0 3 3 4 3 4 3 2 3 3 2 2 0 2 4 2 2 4 5 4 4 3 2 3 2 3 2 5 2 2 1 5 6 6 6 6 7 8 8 7 8 8 8 9 9 9 9 11 12 11 12 15 15 16 16 16 18 17 18 18 17 16 17 19 18
19 19 21 19 16 14 10 7 6 7 8 11 9 3 4 6 7 7 7 7 8 4 4 2 4 5 4 2 4 3 4 4 5 4 3 1 1 2 3 4 5 4 3 4 2 2 2 3 4 0 3 4 5 5 4 5 5 7 8 8 3 5 6 7 8 9 9 12 15 13 13 14 14 15 16 16 16 16 18 17 17 18 17 15 15 16 17
18 18 19 18 17 14 7 3 4 4 9 11 6 2 3 3 7 6 7 6 5 4 1 2 0 5 1 4 3 4 3 3 2 3 4 4 3 3 4 3 4 3 4 2 3 3 3 4 2 3 1 3 1 5 5 6 6 7 6 2 2 4 6 7 8 11 13 12 12 13 13 15 16 17 16 16 14 15 16 15 14 16 17 16 16 16 17
18 19 19 17 16 11 4 2 2 4 7 7 4 4 3 3 3 7 7 6 5 4 4 1 1 2 2 1 4 4 4 4 4 3 3 5 4 4 5 4 5 3 3 3 2 5 2 3 2 3 3 4 4 4 6 6 5 6 4 5 3 6 6 7 9 11 13 13 13 13 13 15 15 16 14 13 13 13 14 16 17 18 17 17 17 16 16
19 19 18 16 14 8 3 1 3 7 7 6 7 3 2 1 6 7 9 8 5 5 2 3 1 2 1 1 3 5 6 5 4 4 2 3 5 4 3 2 5 3 2 3 3 4 3 4 3 1 3 3 3 4 6 6 6 8 5 6 6 9 9 10 10 10 11 11 12 13 14 14 13 13 13 12 14 15 15 16 17 16 17 17 17 16 14
18 18 16 14 12 7 3 3 5 5 7 5 6 6 4 5 7 8 9 7 7 6 3 2 0 1 0 2 1 2 6 5 5 4 1 2 5 3 4 3 3 4 4 4 3 3 4 2 3 4 6 5 2 4 6 7 7 6 8 8 8 9 9 9 9 10 10 8 10 13 12 11 11 13 13 14 15 17 16 15 16 17 16 14 13 13 11
17 17 14 11 9 7 6 5 5 7 3 8 7 10 10 8 7 8 8 7 6 1 3 2 2 0 2 4 0 2 8 5 5 3 1 2 4 3 4 1 3 4 5 2 2 3 1 2 3 5 2 5 4 4 6 6 6 5 7 10 9 9 9 9 10 9 9 9 9 11 12 13 14 14 14 13 11 13 14 14 15 15 14 12 12 12 11
17 15 13 10 6 7 5 5 6 0 3 2 3 2 6 10 7 5 9 6 4 2 2 2 2 2 0 6 3 2 6 5 3 3 2 3 3 5 2 4 2 3 4 3 1 4 3 2 3 3 2 4 3 4 7 4 3 7 9 8 7 8 8 9 8 8 9 10 10 10 12 12 11 10 11 8 11 12 12 11 12 13 12 11 12 12 12
18 15 12 8 8 6 7 9 5 5 4 3 2 5 6 9 8 10 9 5 3 0 0 0 3 4 2 1 2 5 4 4 3 4 4 3 2 5 4 4 0 3 3 2 5 4 4 2 1 3 4 0 3 6 5 6 8 8 9 9 7 8 8 9 10 10 11 12 12 12 10 11 13 12 9 9 9 10 11 10 11 11 11 11 11 12 12
18 15 11 7 8 8 6 6 6 5 3 3 5 8 11 10 8 7 4 4 4 3 2 2 2 2 3 4 3 2 2 4 3 4 2 2 3 2 4 2 4 1 2 3 5 4 4 3 1 5 1 4 5 3 3 6 9 9 9 8 7 7 8 9 10 13 14 13 14 12 8 9 9 7 8 8 9 9 10 10 11 11 11 11 12 12 12
18 15 11 6 5 5 6 1 2 3 4 5 9 13 13 9 5 5 4 4 4 3 3 3 4 2 5 4 1 1 6 3 4 4 4 3 4 2 3 3 5 1 2 4 4 5 0 3 3 5 4 5 2 1 2 6 7 7 8 7 6 7 8 9 11 11 12 13 13 9 9 11 10 9 8 8 8 8 9 10 11 11 12 12 12 12 12
17 16 9 6 6 3 2 2 3 4 6 8 9 6 4 5 2 3 1 3 2 1 3 2 3 2 1 5 4 4 5 3 3 3 2 1 4 1 1 3 1 1 5 3 0 2 3 3 5 5 6 2 3 1 4 5 5 3 6 7 8 8 8 9 10 10 11 12 10 9 9 9 8 8 7 7 7 8 7 9 9 10 10 10 10 11 11
16 8 4 3 4 3 3 4 3 0 4 4 4 3 1 1 2 1 2 1 1 3 0 2 2 2 3 5 3 5 4 4 6 2 4 4 3 2 1 4 1 2 4 5 2 2 6 4 5 5 4 2 2 4 4 6 5 4 5 4 5 5 7 8 8 9 9 8 7 7 7 6 7 6 6 7 7 8 9 9 10 10 10 10 10 10 12
5 5 3 4 3 4 6 7 11 3 4 2 2 1 3 1 2 3 0 3 3 2 0 2 1 4 4 5 5 3 3 5 4 5 4 4 2 4 2 3 1 3 4 5 1 3 4 5 3 5 4 1 1 2 4 5 4 5 5 4 7 9 8 9 8 7 6 4 5 6 6 6 6 6 7 7 7 7 7 7 8 9 9 10 10 10 11
5 5 4 3 6 5 5 6 6 3 2 2 1 1 2 3 2 1 1 4 3 1 1 5 2 4 4 3 4 5 3 3 2 4 3 5 2 3 3 4 1 4 4 5 1 2 4 5 5 6 3 0 2 5 5 5 5 6 5 5 4 5 8 8 6 4 2 5 6 6 6 7 7 7 7 7 6 5 4 5 8 9 10 10 11 10 8
5 6 6 7 7 5 5 4 2 2 1 2 1 4 2 2 1 3 2 4 2 1 1 0 3 3 5 5 6 6 2 3 3 3 2 4 1 3 3 3 1 3 4 2 2 4 4 6 5 5 2 2 3 4 5 5 6 5 6 7 6 6 7 6 4 4 5 6 6 7 7 7 7 7 6 7 5 5 6 7 9 9 9 9 9 9 8
9 6 6 5 3 2 1 3 2 1 2 2 1 3 2 3 3 3 2 2 1 2 1 2 2 4 2 1 5 1 3 3 3 1 2 4 1 2 4 4 3 6 4 3 4 4 5 5 6 4 1 1 1 3 5 5 4 4 5 5 7 8 6 5 5 7 6 6 7 6 5 6 6 5 5 6 6 4 4 6 6 6 7 7 8 8 7
6 5 5 2 2 2 2 4 1 1 2 2 3 3 3 3 3 2 3 1 0 3 0 4 3 5 5 0 4 3 3 5 2 2 4 1 2 3 2 4 6 4 4 5 5 7 6 5 5 4 4 2 1 4 3 4 4 4 5 5 5 7 5 5 6 5 5 4 5 5 5 5 5 6 6 5 6 7 6 7 6 6 6 6 6 7 7
4 2 2 2 2 1 2 2 2 3 4 4 3 5 3 5 3 2 3 2 1 5 5 5 6 5 7 5 3 4 1 3 3 3 3 2 5 4 5 5 4 3 5 7 5 6 4 6 2 4 1 2 2 3 5 4 3 1 1 1 4 4 3 4 4 4 4 4 5 4 3 4 5 5 5 4 5 6 7 7 7 7 7 7 7 7 7
2 2 2 3 3 3 3 3 3 3 3 2 3 5 6 6 5 5 3 1 4 5 6 5 6 5 7 3 2 2 2 3 5 4 3 3 5 6 5 4 4 6 6 6 7 7 6 6 2 2 2 0 1 1 3 2 3 3 3 2 2 2 2 2 3 4 4 3 2 3 3 3 3 3 1 3 4 5 6 6 7 7 7 7 8 8 8
3 2 2 2 4 4 2 4 5 4 3 5 5 5 5 5 5 5 5 5 6 4 5 5 6 5 6 4 4 4 4 3 6 4 3 6 6 4 2 4 6 5 6 7 7 6 5 4 1 2 1 1 2 1 5 4 2 2 2 0 2 3 3 3 4 4 3 3 3 2 1 2 2 2 3 4 4 4 5 5 6 6 6 7 7 7 7
3 2 2 3 4 3 6 6 6 7 6 6 6 6 5 4 5 6 4 3 4 4 5 4 5 3 5 2 3 6 5 3 6 6 4 5 2 4 4 5 6 6 6 7 8 6 5 3 0 2 1 0 0 2 5 5 4 3 2 2 2 4 4 5 5 5 6 5 4 2 1 0 1 1 2 3 4 4 5 5 6 6 6 6 7 7 8
2 2 3 4 3 3 4 5 7 8 6 6 5 5 5 6 6 6 4 3 4 5 4 4 4 3 5 2 5 5 7 3 6 5 2 4 4 4 4 6 6 8 6 6 6 5 5 3 1 1 1 1 1 3 5 5 4 3 3 3 3 4 5 5 6 7 6 5 4 3 3 2 1 2 2 3 3 4 5 4 5 5 6 6 6 7 7
3 4 3 5 6 7 8 7 8 8 7 6 4 4 3 6 6 6 3 5 4 5 3 5 2 4 4 3 5 5 6 4 5 3 6 8 7 6 6 10 8 8 7 4 5 4 3 3 3 1 2 2 3 5 5 5 3 3 4 3 3 4 5 6 6 7 8 6 5 4 5 5 3 2 2 2 3 3 4 5 5 5 5 6 6 6 7
2 3 5 5 8 8 6 7 6 7 6 6 4 4 4 6 6 6 2 3 4 5 4 6 3 4 3 4 3 4 4 1 5 9 8 8 5 7 9 10 9 8 7 6 5 4 4 4 2 1 1 3 5 5 5 5 4 3 3 4 4 5 5 6 7 7 8 8 7 9 6 1 1 2 2 0 1 1 1 4 4 4 4 5 6 6 7
3 5 5 5 8 10 9 10 8 9 9 9 8 7 5 7 6 6 2 4 5 6 7 4 4 4 3 5 5 4 3 3 6 6 9 8 6 9 9 9 8 7 7 6 6 5 4 3 1 1 2 3 3 5 5 4 4 3 3 4 5 6 6 6 6 7 7 7 7 6 4 3 3 2 1 1 2 2 1 3 3 3 4 4 4 5 6
Wind_Direction
4 2 360 356 354 353 350 349 347 347 346 349 346 319 258 226 254 111 166 145 208 213 233 234 230 234 248 244 245 221 246 265 248 241 200 225 228 259 222 254 244 251 268 257 263 228 256 259 246 262 220 7 82 114 111 113 194 264 262 285 163 137 250 257 257 262 266 262 273 259 207 256 265 258 262 264 261 267 274 276 296 290 284 273 264 253 267
5 3 0 357 355 353 350 348 347 345 353 339 314 294 289 302 286 156 140 186 205 232 234 233 232 227 239 239 258 127 287 242 230 236 216 243 197 227 242 234 258 284 247 276 266 253 259 228 262 247 246 137 113 114 126 175 236 225 10 325 70 257 205 239 262 269 264 252 223 240 240 250 258 262 258 255 257 258 269 281 282 272 266 272 273 268 263
5 3 1 359 356 353 350 348 345 343 340 345 317 303 319 293 258 265 162 168 210 229 229 246 253 232 231 219 240 217 219 228 310 313 290 249 265 296 259 277 348 229 236 258 254 264 268 271 210 272 319 112 126 106 181 179 263 9 45 338 316 261 288 286 270 262 254 250 248 262 260 239 263 267 260 258 260 272 298 280 273 265 263 261 259 265 274
6 4 3 360 357 354 352 348 345 342 337 337 324 279 284 262 265 184 213 198 203 243 281 289 271 268 266 249 249 235 223 155 226 250 247 252 310 254 295 329 248 269 251 249 253 255 239 246 257 217 234 182 160 136 181 195 273 70 39 326 260 274 268 258 264 270 270 276 294 315 331 292 271 277 291 284 263 276 277 273 263 258 273 268 261 268 279
6 6 3 2 359 357 354 351 346 343 334 337 323 285 262 303 305 353 306 191 227 241 222 235 239 256 247 243 225 237 246 228 171 193 251 175 255 251 242 262 243 245 256 258 259 247 252 217 243 251 254 237 139 131 221 185 100 113 175 222 264 256 259 257 263 263 268 279 282 289 288 278 276 273 264 271 272 263 254 251 264 284 287 269 268 274 279
8 7 5 4 1 359 357 354 350 344 338 331 310 281 357 293 50 309 38 297 57 240 181 331 292 268 285 248 325 262 255 235 227 146 253 38 210 262 199 238 245 250 241 245 248 253 249 252 234 248 249 273 139 199 181 235 139 175 227 179 239 258 257 254 256 260 266 271 277 283 281 280 285 281 276 275 274 269 263 257 257 265 264 272 287 295 290
8 7 6 5 3 1 360 357 352 347 339 326 347 1 46 5 337 58 342 277 44 352 6 311 310 299 277 266 214 248 251 241 231 268 210 215 211 226 257 255 254 244 250 252 254 246 253 239 244 243 255 245 256 245 178 214 168 205 238 231 215 279 263 269 266 269 267 265 261 256 261 263 263 266 270 265 259 257 259 262 267 266 265 269 276 280 280
9 8 5 5 5 3 2 0 357 348 341 327 44 29 359 30 348 358 339 291 26 352 304 301 274 242 61 272 306 307 261 252 222 228 288 270 251 342 257 236 235 247 259 250 255 346 335 338 283 30 322 268 261 273 269 260 191 247 234 226 166 218 260 274 277 281 273 275 283 280 271 276 274 268 265 264 266 268 267 268 263 263 266 266 268 277 279
10 9 8 6 6 4 4 3 1 352 341 17 17 40 10 338 340 335 317 297 37 309 268 271 271 255 183 257 160 247 299 245 259 58 346 344 255 307 289 314 313 263 258 252 17 31 357 14 39 260 254 263 294 279 274 319 277 234 239 225 230 209 270 279 276 275 272 270 272 275 280 275 269 265 263 263 262 263 261 264 271 276 271 277 283 278 275
9 9 9 9 8 6 4 5 3 358 340 10 7 21 359 341 5 298 302 306 49 287 87 230 230 235 50 10 25 311 243 307 272 357 328 39 14 359 342 309 284 262 251 244 33 3 336 346 344 325 303 269 262 262 270 260 281 265 259 258 257 247 273 276 275 271 272 275 274 276 277 278 269 263 263 263 259 259 263 263 263 258 270 271 264 266 273
10 9 9 9 9 8 7 5 5 2 357 12 358 11 3 1 336 331 316 292 132 347 302 349 358 44 304 41 271 226 269 236 284 276 172 230 72 347 351 295 272 309 42 38 342 348 318 303 305 286 268 263 262 255 257 254 248 256 273 273 262 267 266 268 273 271 274 279 280 283 273 254 255 6 2 321 288 286 278 272 273 279 283 285 295 299 313
9 9 9 7 6 7 7 6 5 3 0 348 337 8 5 339 313 306 324 313 52 312 19 38 11 33 337 17 316 326 336 333 320 351 315 80 10 3 351 319 303 248 39 338 322 291 276 251 247 248 260 266 265 265 260 254 258 259 258 257 266 267 269 267 266 266 271 280 278 264 253 254 280 279 290 306 287 279 277 285 280 279 293 296 300 293 283
9 8 8 8 7 6 7 6 6 2 358 348 341 9 358 346 321 329 335 310 34 358 0 77 40 34 358 344 306 50 327 311 341 318 355 334 303 2 19 3 7 17 336 335 333 291 259 259 255 248 248 242 246 247 249 253 252 247 254 254 254 254 253 260 260 265 272 267 256 253 252 286 288 263 263 262 285 271 279 276 276 268 292 310 303 304 306
8 7 5 7 7 7 6 6 5 3 356 350 340 9 2 359 353 347 358 341 38 38 343 212 97 38 352 15 327 297 269 251 337 315 305 51 317 326 1 359 11 336 332 322 289 285 277 252 255 252 248 246 249 250 247 250 247 245 238 239 243 256 265 261 267 257 263 260 256 260 282 280 256 241 59 316 300 304 303 284 292 311 315 308 314 314 317
7 6 6 6 6 5 4 4 3 3 358 346 325 10 13 3 351 333 323 308 327 68 27 26 6 346 321 339 351 306 243 202 274 140 101 185 262 353 331 340 358 337 333 296 271 241 248 267 259 248 249 242 235 238 230 244 231 236 244 248 251 249 250 252 255 250 251 264 268 264 257 254 257 66 114 48 14 326 322 319 290 297 326 310 309 302 317
7 6 5 4 4 4 3 3 1 0 1 347 335 16 28 5 336 326 322 317 322 354 42 18 348 321 300 21 338 310 347 310 306 279 218 127 7 264 85 351 357 325 298 264 255 272 255 242 248 248 247 246 248 257 243 228 232 194 238 251 250 248 248 253 255 264 253 253 258 261 267 279 70 52 39 26 21 2 330 291 269 82 19 30 329 338 348
6 4 4 3 3 1 360 360 358 360 357 354 341 1 26 6 352 342 327 316 13 55 30 8 330 271 270 332 189 17 356 335 348 310 282 124 17 279 25 344 319 241 274 285 244 235 232 233 244 252 253 252 254 253 257 249 249 210 172 249 251 249 243 244 248 248 252 257 256 256 254 288 21 18 348 30 357 356 309 287 276 44 333 3 346 322 320
5 4 2 1 1 0 359 357 356 358 358 350 340 347 26 5 356 331 308 323 324 86 37 12 355 359 26 3 342 7 294 280 249 228 281 315 295 2 349 318 251 137 288 253 245 237 244 246 244 241 256 336 303 255 234 199 279 262 221 205 241 259 250 249 254 256 254 253 260 266 260 94 50 38 341 319 330 318 275 265 360 351 322 326 318 321 320
4 3 1 359 0 358 357 356 355 355 357 352 336 328 37 9 357 343 314 306 352 61 50 22 6 27 352 303 198 252 57 345 309 302 297 254 43 345 311 7 314 297 179 254 256 257 247 248 251 266 264 198 85 257 270 266 250 253 286 276 238 229 231 242 250 255 252 255 258 254 268 50 329 13 335 314 296 261 262 18 317 312 329 329 319 314 315
1 360 358 358 358 359 356 353 351 352 353 352 340 353 54 19 9 358 349 1 354 97 37 32 359 30 21 18 18 11 354 243 2 335 5 1 29 313 264 195 150 297 271 250 250 277 275 254 252 303 261 262 182 325 267 251 245 253 253 250 270 278 272 254 248 252 256 254 259 259 252 75 344 355 312 349 287 325 353 317 322 315 305 311 309 301 299
358 355 357 353 350 356 356 351 349 348 351 345 343 321 15 28 11 2 347 339 323 326 99 46 358 43 19 41 15 4 19 19 10 347 5 340 357 291 293 87 14 358 0 2 306 13 319 274 256 230 275 285 206 205 260 269 277 260 256 260 268 318 280 271 261 268 272 255 245 256 30 341 305 324 308 316 306 311 309 312 301 310 307 301 299 299 304
353 352 351 353 351 350 353 351 348 346 348 346 332 316 22 18 13 2 330 300 352 46 21 31 8 41 48 42 55 27 17 17 26 344 345 325 354 12 22 355 13 7 6 327 267 233 227 260 272 257 260 259 265 265 285 271 254 129 110 265 260 222 272 312 293 339 288 278 288 311 305 303 313 304 300 291 302 307 308 305 297 297 296 293 293 292 292
352 351 351 350 348 345 344 347 346 343 345 345 333 2 15 358 5 341 295 346 124 96 129 122 159 141 146 112 68 31 3 22 357 5 358 338 327 68 47 44 44 349 327 340 343 329 324 322 284 331 301 278 289 286 260 249 274 259 255 193 266 310 272 282 272 280 289 278 274 285 287 294 303 300 294 296 294 296 294 292 293 291 293 296 292 296 297
349 349 349 348 344 342 339 341 344 341 341 335 331 338 9 10 1 338 339 310 303 123 145 128 233 49 6 11 10 320 290 342 24 354 2 334 346 32 32 24 357 313 356 6 2 329 335 320 328 335 276 307 334 253 258 255 255 294 287 275 255 326 19 306 275 286 289 277 291 288 299 303 295 296 297 298 296 291 292 292 293 300 302 298 295 295 292
346 347 347 348 344 342 338 335 344 338 340 326 317 278 10 12 8 347 338 341 332 308 333 86 46 4 46 327 329 356 35 346 279 285 314 285 293 311 341 349 349 332 2 337 299 285 284 279 253 233 260 0 336 264 5 296 259 29 272 262 283 256 71 306 277 276 267 278 290 294 292 288 291 294 297 296 299 302 306 312 309 302 293 288 288 287 285
343 343 348 347 345 341 336 334 339 335 333 326 314 334 15 26 358 356 355 353 298 284 295 44 65 173 257 49 43 30 2 338 17 355 325 307 296 308 308 307 272 244 296 306 306 279 305 254 247 289 290 192 142 265 267 321 298 281 261 281 305 315 321 286 299 290 292 294 290 286 296 297 293 292 300 315 318 318 313 307 304 300 295 291 289 285 283
338 342 348 347 342 337 336 330 335 338 328 309 299 12 16 28 20 11 9 352 311 185 111 83 66 83 69 48 19 355 18 355 43 350 57 313 310 272 269 278 284 275 268 281 275 293 273 271 277 269 289 335 351 282 282 269 270 282 277 270 269 267 267 293 295 282 278 284 302 331 313 304 307 309 311 311 309 303 299 297 293 293 294 296 298 296 291
338 342 348 347 341 338 334 339 341 328 310 304 292 4 9 19 34 27 4 352 337 358 348 72 139 61 353 39 346 0 13 352 5 338 354 7 293 327 290 270 281 290 305 299 265 228 272 276 266 50 255 272 273 258 233 267 266 262 262 282 327 253 310 314 291 298 300 312 314 311 300 291 290 302 308 309 309 306 302 303 308 307 305 305 302 296 292
338 343 348 346 344 342 345 350 1 335 302 290 274 249 212 11 3 38 20 342 314 298 288 60 143 160 31 40 326 347 42 337 355 333 331 310 316 303 271 272 282 282 282 259 258 275 269 260 282 276 325 80 256 273 288 267 256 260 271 295 272 346 341 297 293 285 278 288 303 310 306 303 309 311 312 307 307 306 303 303 298 294 298 301 298 293 292
340 346 348 346 347 349 11 3 301 259 269 270 273 277 238 133 352 36 18 327 342 315 283 274 219 89 178 349 13 348 345 350 342 336 327 314 317 312 303 323 289 273 258 267 298 275 288 290 273 245 128 145 250 283 275 280 274 282 343 21 11 305 304 310 308 311 308 316 309 307 306 304 303 301 300 298 298 301 304 305 309 307 304 302 300 295 293
342 345 347 346 350 359 358 325 256 261 261 264 280 298 327 113 68 26 8 336 336 313 341 270 9 95 187 114 304 349 322 343 351 326 314 317 285 289 311 263 254 252 268 252 228 256 282 261 263 183 143 204 255 269 274 274 280 263 74 348 318 321 323 320 328 315 313 307 310 310 303 297 296 293 295 308 314 311 308 308 310 309 305 302 300 302 299
340 343 344 344 352 360 0 325 285 277 267 329 3 7 15 5 352 339 328 307 309 261 269 305 334 244 5 148 169 317 329 4 305 296 232 21 305 0 295 268 300 321 329 308 319 300 254 292 278 282 278 109 215 274 274 271 269 290 342 319 332 325 332 322 319 311 299 308 318 307 298 300 308 313 309 314 316 319 309 312 315 313 306 295 292 293 311
335 341 341 340 338 355 1 333 324 307 6 62 65 101 73 23 336 303 312 318 265 329 307 296 20 334 230 74 332 24 319 262 205 315 271 123 323 343 261 239 266 227 122 255 233 256 91 251 258 255 174 140 238 254 263 269 297 312 315 324 330 338 327 325 307 307 319 322 313 306 306 308 310 313 312 311 333 334 326 326 328 335 339 344 352 351 345
329 336 336 331 324 316 320 316 302 30 132 200 214 186 60 21 326 317 312 277 285 293 275 324 275 289 325 123 185 86 330 340 330 350 314 82 8 268 309 294 216 269 158 242 314 281 231 244 246 264 201 222 226 264 263 269 301 313 319 324 338 329 322 312 312 328 322 318 316 306 303 306 303 300 300 341 356 343 342 343 341 343 354 353 349 345 342
324 330 335 322 290 273 288 274 257 247 313 314 8 58 11 358 320 297 286 333 297 223 329 315 283 309 350 266 284 79 10 309 324 7 306 14 357 323 358 287 190 257 129 212 258 254 274 259 341 259 254 37 243 248 268 311 324 330 329 327 335 335 320 320 325 329 325 322 320 319 315 318 320 316 332 7 355 351 344 349 353 355 355 354 351 349 349
319 323 330 313 264 254 251 232 250 285 258 353 8 3 348 324 284 263 294 296 300 327 309 23 310 342 329 324 333 56 3 269 330 320 352 321 234 176 280 319 279 237 345 274 284 262 247 103 210 259 241 229 237 265 322 334 333 336 331 326 338 326 332 321 322 320 317 318 321 310 325 333 322 335 15 17 2 360 1 1 8 9 8 7 6 2 1
312 314 304 272 252 218 237 299 1 341 8 336 319 315 299 292 248 260 241 240 202 229 302 325 277 16 346 343 321 11 318 325 349 315 348 322 334 315 294 281 275 31 255 239 246 258 194 143 255 266 250 247 284 306 340 342 347 335 328 321 314 323 330 332 330 321 314 318 323 335 346 333 350 19 13 16 16 16 16 20 19 18 16 13 10 9 7
302 301 278 235 234 266 325 48 27 20 313 286 273 266 192 202 233 198 204 250 112 241 230 241 283 358 297 284 322 42 290 311 343 318 315 30 292 265 302 277 344 330 276 293 19 51 295 274 264 267 261 228 186 121 360 1 356 342 328 345 329 324 324 317 320 318 320 329 336 345 344 354 5 21 24 30 25 31 27 23 23 20 16 11 8 5 5
279 259 264 337 312 11 346 5 93 268 289 250 240 277 233 153 288 265 267 273 164 230 132 284 301 341 303 304 327 102 353 324 301 305 313 55 325 310 344 307 113 263 288 273 187 69 277 258 254 258 265 185 167 8 4 32 357 357 343 340 305 309 321 316 315 330 332 321 340 355 3 7 9 39 43 51 48 35 28 24 18 12 10 11 6 4 5
359 339 332 301 346 3 325 122 139 220 243 266 210 267 272 222 269 275 170 260 239 225 178 249 169 300 339 317 324 311 100 303 313 325 338 314 117 304 354 290 330 298 279 277 211 147 279 291 283 272 250 165 230 76 30 30 3 6 351 320 341 338 330 320 334 341 330 354 48 43 49 53 53 53 52 49 39 27 10 12 16 14 9 10 5 6 6
356 335 313 327 348 327 320 317 294 241 264 263 264 209 272 267 231 335 287 261 263 254 161 318 290 270 158 264 268 293 119 222 274 286 290 289 66 277 275 276 359 284 282 270 67 270 285 281 279 267 282 352 32 43 32 25 14 16 2 3 339 303 320 333 352 350 29 94 82 78 80 81 75 70 66 53 38 21 353 354 7 10 7 6 4 6 359
338 316 313 304 289 274 284 254 243 259 239 245 249 252 231 257 251 242 221 288 5 334 212 273 293 318 311 329 319 314 297 37 311 295 292 287 73 305 304 287 279 271 277 306 334 269 266 270 271 272 65 74 36 37 23 8 18 15 360 352 340 333 338 3 9 50 69 81 96 96 91 80 68 57 45 40 33 20 10 7 3 5 6 6 3 4 3
272 237 261 308 278 271 267 268 185 213 222 226 229 274 210 251 242 289 303 254 103 276 357 186 283 295 304 26 281 195 308 22 294 221 245 277 309 240 277 281 269 259 265 292 281 287 277 269 270 282 259 209 341 31 18 1 13 17 11 348 1 355 23 46 62 73 71 82 87 84 75 65 58 49 35 30 32 39 25 19 15 8 11 11 12 12 12
266 220 228 259 280 254 219 258 143 192 251 229 202 220 201 264 270 190 245 270 209 239 95 308 321 314 297 205 310 301 256 196 202 279 269 253 253 273 264 260 253 274 295 265 264 265 269 275 272 297 73 90 112 36 351 349 12 18 18 344 12 359 24 71 81 91 103 98 81 68 58 55 52 41 30 20 9 24 28 25 26 24 19 18 13 17 20
308 275 259 273 251 218 145 278 192 192 237 214 211 270 287 281 303 293 301 57 287 293 315 299 304 296 287 314 284 260 303 304 137 235 290 314 276 273 262 268 289 295 278 279 276 275 273 271 267 268 198 176 47 15 331 349 14 12 282 298 32 22 44 88 108 126 119 111 101 90 66 49 43 31 26 27 11 10 18 26 20 23 20 18 14 12 20
303 300 286 259 263 243 212 240 185 245 241 226 253 276 289 307 322 308 1 329 286 294 288 301 297 290 285 276 252 269 195 264 280 266 256 240 256 262 267 285 277 271 273 268 260 257 261 273 290 84 100 175 72 332 301 310 347 327 308 351 52 89 82 118 151 149 141 124 95 73 66 51 37 29 23 27 32 26 18 26 29 26 22 19 15 11 11
264 241 269 285 268 257 218 235 223 229 275 281 282 288 289 296 312 309 306 303 290 297 295 296 291 291 289 289 270 244 239 252 262 264 257 255 252 271 253 264 260 247 253 253 254 258 262 266 283 105 172 102 123 260 291 331 339 303 303 257 175 137 159 166 177 173 172 167 159 142 96 23 354 31 54 35 17 33 39 32 35 31 31 26 21 13 8
276 280 274 256 242 224 217 228 240 265 273 271 273 279 291 296 282 279 289 299 289 289 284 296 284 280 264 231 238 269 280 241 243 254 251 270 255 254 261 242 241 245 245 252 251 249 255 267 305 77 46 47 140 300 310 312 310 298 263 252 208 162 169 181 185 190 195 195 178 173 147 220 279 14 10 54 37 26 34 34 34 32 28 31 26 22 15
293 288 263 254 262 278 274 286 285 276 277 277 272 266 268 273 275 278 285 275 266 268 280 277 283 287 271 275 265 262 257 245 255 259 226 218 232 240 234 248 244 249 248 250 259 261 272 285 310 132 198 166 168 254 276 294 308 297 268 253 211 181 179 181 193 195 206 208 210 200 196 220 240 52 23 20 43 41 26 30 36 39 32 28 28 25 22
247 241 239 248 267 268 258 257 260 266 271 267 255 257 255 260 262 268 273 273 264 262 258 253 234 259 281 287 266 254 256 245 238 247 241 239 237 245 248 253 248 253 264 259 263 261 252 259 268 266 317 308 263 266 272 288 281 271 273 241 219 189 188 182 192 199 201 210 212 208 209 211 189 158 118 76 65 61 53 32 25 36 37 32 26 28 29
223 250 257 246 252 271 292 274 267 272 274 274 274 270 264 259 260 266 236 249 243 253 251 253 239 223 244 245 243 248 252 245 236 234 240 249 245 244 244 252 256 261 268 273 272 278 291 290 294 311 237 253 259 251 252 264 254 228 257 251 219 193 192 198 194 197 200 201 203 224 235 181 69 84 104 121 48 329 102 81 45 30 33 45 38 28 33
238 233 247 255 252 256 261 271 275 272 276 280 278 276 273 268 262 262 238 243 247 246 251 247 243 240 226 230 233 254 285 253 247 253 252 248 243 250 251 256 264 265 274 279 282 281 270 265 247 226 261 271 267 263 261 269 269 246 237 241 227 209 199 195 201 206 211 203 206 207 208 179 168 180 159 205 236 255 100 82 66 45 32 44 48 45 39